Regional Weather Roundup
Issued by NWS Grand Forks, ND

Home | Current Version | Previous Version | Graphics & Text | Print | Product List | Glossary On
Versions: 1 2 3 4 5 6 7 8 9 10 11 12 13 14 15 16 17 18 19 20 21 22 23 24 25 26 27 28 29 30 31 32 33 34 35 36 37 38 39 40 41 42 43 44 45 46 47 48 49 50
860
ASUS43 KFGF 221610
RWRFGF
PRAIRIE TO PINES  WEATHER ROUNDUP
NATIONAL WEATHER SERVICE EASTERN NORTH DAKOTA/GRAND FORKS ND
1100 AM CDT SAT JUL 22 2017

 **SATELLITE DATA USED TO AUGMENT SKY COVER AT AUTOMATED STATIONS**
 *****  WEATHER ACROSS EASTERN NORTH DAKOTA  *****

CITY           SKY/WX    TMP DP  RH WIND       PRES   REMARKS
GRAND FORKS    FAIR      80  60  50 NW18G26   29.83R
GRAND FRKS AFB FAIR      78  60  53 NW18G24   29.85R
DEVILS LAKE    FAIR      72  57  59 W21       29.90R
FARGO          FAIR      79  67  66 W15       29.85S
WAHPETON ARPT  FAIR      77  64  65 W10       29.87S
$$

 ***** WEATHER ACROSS CENTRAL AND WESTERN NORTH DAKOTA  *****

CITY           SKY/WX    TMP DP  RH WIND       PRES   REMARKS
BISMARCK       FAIR      81  58  45 CALM      29.96F
MINOT          FAIR      77  52  41 NW16      29.93S
JAMESTOWN      FAIR      80  61  52 NW12      29.91R
MINOT AFB      FAIR      74  52  45 NW17      29.92S
GARRISON         N/A     77  53  43 NW12G22   29.95F
WILLISTON      FAIR      73  50  44 NW17G30   30.01R
DICKINSON      FAIR      80  43  26 W16G26    30.01F
HETTINGER      FAIR      79  48  33 SW13      30.06S
$$

 *****  OTHER AIRPORT OBSERVATIONS IN OUR AREA  *****

CITY           SKY/WX    TMP DP  RH WIND       PRES   REMARKS
WALHALLA       NOT AVBL
GRAFTON AIRPOR FAIR      77  61  57 W18G25    29.84R
VALLEY CITY AR FAIR      77  63  61 W15       29.92R
CANDO          NOT AVBL
CAVALIER APRT  FAIR      72  63  73 NW13G22   29.83R
GWINNER        SUNNY     77  70  78 SW8       29.90S
SHEYENNE NWR     N/A     79  69  72 W9        29.95S
ROLLA            N/A     68  55  64 NW17      29.91S
 ***** THE ABOVE OBSERVATIONS ARE NON NWS ARE NOT QUALITY
       CONTROLLED AND MAY MIS-REPORT RAIN FOR SNOW...
$$

  *****  WEATHER ACROSS NORTHERN MINNESOTA  *****

CITY           SKY/WX    TMP DP  RH WIND       PRES   REMARKS
FLAG ISLAND    CLOUDY    70  64  83 S5        29.76S FOG
WARROAD        FAIR      75  68  78 W14       29.78R
ROSEAU         FAIR      75  64  69 W16G23    29.79R
HALLOCK        FAIR      73  63  68 NW17G26   29.80R
THF RVR FALLS  FAIR      76  64  66 W16       29.83S
BAUDETTE       PTSUNNY   71  66  84 S8        29.78F
WASKISH        PTSUNNY   72  70  94 SW12G17   29.80
CROOKSTON      FAIR      79  64  61 NW15G22   29.83S
STEPHEN NDAWN    N/A     75  59  57 W16         N/A
GREENBUSH NDAW   N/A    N/A N/A N/A W13         N/A
$$
  *****  WEATHER ACROSS CENTRAL AND WEST MINNESOTA  *****

CITY           SKY/WX    TMP DP  RH WIND       PRES   REMARKS
FOSSTON        FAIR      73  66  78 W10       29.84R
BEMIDJI        FAIR      75  64  68 W12       29.83S
PARK RAPIDS    FAIR      80  65  59 W16G25    29.83S
ELBOW LAKE     FAIR      76  69  81 SW12      29.88R
WADENA         FAIR      77  64  65 W10G16    29.85R
DETROIT LAKES  FAIR      77  64  65 W13       29.88R
MOORHEAD       FAIR      77  66  69 W10       29.87S
FERGUS FALLS   FAIR      75  70  83 W10       29.87R
MORRIS MN      FAIR      81  66  61 W10       29.86S
STAPLES        FAIR      79  66  65 W13       29.84R
$$
  *****  WEATHER ELSEWHERE ACROSS MINNESOTA  *****

CITY           SKY/WX    TMP DP  RH WIND       PRES   REMARKS
DULUTH         CLOUDY    65  63  93 E3        29.83F
INTRNTL FALLS  CLOUDY    69  62  78 CALM      29.79F
ELY            FAIR      66  57  72 CALM      29.83S
CLOQUET        PTSUNNY   68  63  83 N7        29.82S
WHEATON        FAIR      75  68  78 SW13      29.89S
BRAINERD       FAIR      77  66  68 W5        29.83R
HIBBING        CLOUDY    66  65  96 CALM      29.82F
ALEXANDRIA     FAIR      77  69  76 W12       29.88R
SAINT CLOUD    FAIR      79  69  71 W7        29.83R
MINNEAPOLIS    FAIR      81  68  64 S7        29.82F
$$

  *****  WEATHER ACROSS SOUTH DAKOTA  *****

CITY           SKY/WX    TMP DP  RH WIND       PRES   REMARKS
SIOUX FALLS    CLOUDY    80  72  76 NW7       29.92S
BROOKINGS      FAIR      77  69  76 VRB6      29.92S
WATERTOWN      FAIR      75  69  81 W5        29.91S
HURON          FAIR      77  70  79 MISG      29.93R
SISSETON         N/A     81  71  71 VRB3      29.87F
ABERDEEN       FAIR      80  68  66 N7        29.92R
MITCHELL       FAIR      80  71  74 W7        29.94R
PIERRE         FAIR      82  63  52 N12       29.94F
MOBRIDGE       FAIR      80  66  62 NW8       29.95S
RAPID CITY     FAIR      79  44  28 N15       30.08R
$$

  *****  SOME WEATHER IN NEARBY STATES *****

CITY           SKY/WX    TMP DP  RH WIND       PRES   REMARKS
GLASGOW MT     FAIR      71  49  45 NW13      30.09R
GREAT FALLS MT FAIR      72  34  24 W8        30.18S
CHEYENNE WY    FAIR      80  46  30 NW13G21   30.24R
SCOTTSBLUFF NE FAIR      81  55  40 MISG      30.11S
OMAHA NE       CLOUDY    82  75  79 N10       29.85R
DES MOINES IA  FAIR      89  75  63 N7        29.79R HX  99
DAVENPORT IA   CLOUDY    78  70  76 SW5       29.86R
CHICAGO IL     PTSUNNY   77  68  73 N10       29.83F
EAU CLAIRE WI  FAIR      78  66  66 S7        29.83F
LA CROSSE WI   CLOUDY    75  71  87 NW5       29.86R
$$

  *****  SOME NATIONAL WEATHER *****

CITY           SKY/WX    TMP DP  RH WIND       PRES   REMARKS
LA GUARDIA NY  FAIR      87  58  37 NE13      29.87F
RALEIGH NC     FAIR      93  75  55 SW8       29.98F HX 104
ATLANTA GA     FAIR      86  75  69 S7        30.05F HX  95
NEW ORLEANS LA FAIR      89  75  63 NE3       30.03S HX  99
OKLAHOMA CITY  FAIR      91  67  44 SW9       29.93S HX  94
ALBUQUERQUE NM FAIR      75  58  55 W5        30.20F
SALT LAKE CITY FAIR      85  51  31 VRB7      30.12S
LOS ANGELES CA FAIR      74  64  71 E5        29.93R
BOISE ID       FAIR      71  45  39 NW3       30.15S
SEATTLE WA     CLOUDY    67  53  61 VRB3      30.21R
$$

*** WEATHER ACROSS MANITOBA...SASKATCHEWAN AND ONTARIO ***
                ***ONTARIO***

CITY           SKY/WX    TMP DP  RH WIND       PRES   REMARKS
GERALDTON      PTSUNNY   68  45  42 SE13      29.95S
THUNDER BAY    PTSUNNY   64  55  72 NE13G22   29.87S
SIOUX LOOKOUT  CLOUDY    70  55  60 E7        29.83F
TORONTO        LGT RAIN  73  61  64 S3        29.88S
BIG TROUT LK   SUNNY     68  50  52 W8        29.97S
PICKLE LAKE    PTSUNNY   70  41  35 E12G20    29.93F
DRYDEN         PTSUNNY   72  59  64 SE9       29.79F
KENORA         CLOUDY    66  63  88 SE6       29.78R
$$
                *** MANITOBA***

CITY           SKY/WX    TMP DP  RH WIND       PRES   REMARKS
BRANDON        PTSUNNY   64  57  77 NW20G26   29.88R
DAUPHIN        CLOUDY    64  61  88 NW8       29.87R
ISLAND LAKE    MOSUNNY   72  48  43 NE7       29.94S
PILOT MOUND      N/A     64  57  77 NW15G23     N/A
THE PAS        PTSUNNY   68  54  60 N12       29.93R
THOMPSON       PTSUNNY   73  45  35 W5        29.95F
WINNIPEG       PTSUNNY   70  64  83 W15       29.75F
LYNN LAKE      SUNNY     73  41  31 S7        29.95F
CHURCHILL      MOSUNNY   70  45  40 NW5       29.93F
GILLAM         MOSUNNY   70  48  46 N6        29.96F
$$
                ***SASKATCHEWAN***

CITY           SKY/WX    TMP DP  RH WIND       PRES   REMARKS
ESTEVAN        MOSUNNY   66  59  77 NW6       29.97F
KINDERSLEY     MOSUNNY   66  57  72 W6        30.05F
LLOYDMINSTER   MOSUNNY   64  61  88 W3        30.02S
PRINCE ALBERT  MOSUNNY   64  52  63 CALM      30.01S
REGINA         MOSUNNY   66  55  68 N14G22    30.01R
YORKTON        CLOUDY    57  55  94 NW12      29.94R
N. BATTLEFORD  CLOUDY    59  59 100 NW3       30.04R FOG
LA RONGE       MOSUNNY   68  57  68 SW5       29.99S
SASKATOON      CLOUDY    59  57  94 CALM      30.03S
SWIFT CURRENT  SUNNY     66  52  59 NW15G23   30.07S
$$
NOTE: THESE ARE AUTOMATED STATIONS WITH LIMITED QUALITY CONTROL
      "FAIR" INDICATES FEW OR NO CLOUDS BELOW 12,000 FEET WITH NO
      SIGNIFICANT WEATHER AND/OR OBSTRUCTIONS TO VISIBILITY.
      SKY/WX - SKY CONDITION AND SIGNIFICANT WEATHER.
      TMP - AIR TEMPERATURE.    DP   - DEWPOINT TEMPERATURE.
      RH  - RELATIVE HUMIDITY.  PRES - PRESSURE.
      HX  - HEAT INDEX.         WCI  - WIND CHILL INDEX.
$




USA.gov is the U.S. government's official web portal to all federal, state and local government web resources and services.